This demonstration page uses our WeatherBlox Daily Observations layout. Learn more.

Left ArrowRight Arrow

39.08367, -84.50855

Hourly Observations for January 25, 2018

Temp ( °F °C ) Dew Point ( °F °C ) Humidity (%) Winds ( mph kmh ) Pressure ( in mb ) Visibility ( mi km ) Precip ( " mm )
12:53 am 00:53 Cloudy 30 -1.1 21 -6.1 69 69 W 9 15 30.45 1031 10 16.0934 0 0
1:53 am 01:53 Clear 28 -2.2 20 -6.7 72 72 WNW 3 6 30.46 1031 10 16.0934 0 0
2:53 am 02:53 Clear 26 -3.3 19 -7.2 75 75 S 3 6 30.48 1032 10 16.0934 0 0
3:53 am 03:53 Clear 26 -3.3 20 -6.7 78 78 Calm 30.48 1032 10 16.0934 0 0
4:53 am 04:53 Clear 24 -4.4 20 -6.7 84 84 Calm 30.49 1032 10 16.0934 0 0
5:53 am 05:53 Clear 23 -5 19 -7.2 85 85 Calm 30.5 1033 10 16.0934 0 0
6:53 am 06:53 Clear 22 -5.6 19 -7.2 89 89 Calm 30.52 1034 10 16.0934 0 0
7:53 am 07:53 Sunny 21 -6.1 19 -7.2 92 92 Calm 30.54 1034 10 16.0934 0 0
8:53 am 08:53 Sunny 24 -4.4 22 -5.6 91 91 Calm 30.55 1035 10 16.0934 0 0
9:53 am 09:53 Sunny 29 -1.7 23 -5 78 78 SSW 6 9 30.56 1035 10 16.0934 0 0
10:53 am 10:53 Sunny 32 0 23 -5 69 69 S 8 13 30.57 1035 10 16.0934 0 0
11:53 am 11:53 Sunny 35 1.7 24 -4.4 64 64 S 6 9 30.55 1035 10 16.0934 0 0
12:53 pm 12:53 Cloudy 38 3.3 25 -3.9 60 60 VRB 7 11 30.51 1033 10 16.0934 0 0
1:53 pm 13:53 Sunny 40 4.4 26 -3.3 58 58 S 9 15 30.48 1032 10 16.0934 0 0
2:53 pm 14:53 Sunny 43 6.1 27 -2.8 53 53 S 7 11 30.46 1032 10 16.0934 0 0
3:53 pm 15:53 Sunny 44 6.7 27 -2.8 51 51 S 9 15 30.45 1031 10 16.0934 0 0
4:53 pm 16:53 Sunny 44 6.7 28 -2.2 53 53 SSE 8 13 30.45 1031 10 16.0934 0 0
5:53 pm 17:53 Clear 41 5 27 -2.8 57 57 S 6 9 30.44 1031 10 16.0934 0 0
6:53 pm 18:53 Clear 40 4.4 27 -2.8 60 60 SSW 5 7 30.43 1031 10 16.0934 0 0
7:53 pm 19:53 Clear 36 2.2 27 -2.8 70 70 SSW 7 11 30.44 1031 10 16.0934 0 0
8:53 pm 20:53 Clear 37 2.8 27 -2.8 67 67 SW 5 7 30.44 1031 10 16.0934 0 0
9:53 pm 21:53 Clear 32 0 26 -3.3 79 79 W 5 7 30.44 1031 10 16.0934 0 0
10:53 pm 22:53 Clear 31 -0.6 26 -3.3 82 82 Calm 30.43 1031 10 16.0934 0 0
11:53 pm 23:53 Clear 29 -1.7 25 -3.9 85 85 Calm 30.43 1031 10 16.0934 0 0

Powered by AerisWeather